Las Vegas, NV

9:31 AM PDT on August 17, 2017 (GMT -0700)
McCarran International

Weather History for KLAS - April, 2013

Change the Weather History Date:

Monday, April 22, 2013

  Actual Average Record
Temperature  
Mean Temperature 79 °F 69 °F  
Max Temperature 92 °F 80 °F 99 °F (2012)
Min Temperature 65 °F 58 °F 33 °F (1963)
Degree Days  
Heating Degree Days 0 1  
Month to date heating degree days 34 56  
Since 1 July heating degree days 1757 1936  
Cooling Degree Days 14 5  
Month to date cooling degree days 104 75  
Year to date cooling degree days 190 106  
Growing Degree Days 28 (Base 50)    
Moisture  
Dew Point 20 °F    
Average Humidity 12    
Maximum Humidity 18    
Minimum Humidity 6    
Precipitation  
Precipitation 0.00 in 0.00 in 0.11 in (1955)
Month to date precipitation 0.03 0.12  
Year to date precipitation 0.61 1.86  
Snow  
Snow 0.00 in 0.00 in 0.00 in ()
Month to date snowfall 0.0 0.0  
Since 1 July snowfall T 0.3  
Snow Depth 0.00 in    
Sea Level Pressure  
Sea Level Pressure 29.71 in    
Wind  
Wind Speed 8 mph (SW)    
Max Wind Speed 28 mph    
Max Gust Speed 35 mph    
Visibility 10 miles    
Events      
T = Trace of Precipitation, MM = Missing Value Source: NWS Daily Summary

Daily Weather History Graph

Daily Weather History Graph

Search for Another Location

Airport or City:

Trip Planner

Search our weather history database for the weather conditions in past years. The results will help you decide how hot, cold, wet, or windy it might be!

Date:

Astronomy

Apr. 22, 2013 Rise Set
Actual Time 5:58 AM PDT 7:20 PM PDT
Civil Twilight 5:31 AM PDT 7:47 PM PDT
Nautical Twilight 4:59 AM PDT 8:19 PM PDT
Astronomical Twilight 4:25 AM PDT 8:53 PM PDT
Moon 4:19 PM PDT (4/22) 3:48 AM PDT (4/22)
Length of Visible Light 14h 16m
Length of Day
13h 22m
Waxing Gibbous, 88% of the Moon is Illuminated
Apr 22
Waxing Gibbous
Apr 25
Full
May 2
Last Quarter
May 9
New
May 17
First Quarter

Hourly Weather History & Observations

Time (PDT) Temp. Dew Point Humidity Pressure Visibility Wind Dir Wind Speed Gust Speed Precip Events Conditions
12:56 AM 77.0 °F 21.9 °F 13% 29.77 in 10.0 mi SSW 16.1 mph - N/A   Clear
1:56 AM 77.0 °F 24.1 °F 14% 29.76 in 10.0 mi SSW 12.7 mph - N/A   Clear
2:56 AM 73.0 °F 24.1 °F 16% 29.75 in 10.0 mi West 8.1 mph 18.4 mph N/A   Clear
3:56 AM 71.1 °F 21.9 °F 16% 29.76 in 10.0 mi SW 8.1 mph - N/A   Clear
4:56 AM 69.1 °F 24.1 °F 18% 29.76 in 10.0 mi SSW 5.8 mph - N/A   Clear
5:56 AM 68.0 °F 21.0 °F 17% 29.78 in 10.0 mi Calm Calm - N/A   Clear
6:56 AM 68.0 °F 23.0 °F 18% 29.81 in 10.0 mi SW 5.8 mph - N/A   Clear
7:56 AM 72.0 °F 21.9 °F 15% 29.82 in 10.0 mi WSW 4.6 mph - N/A   Clear
8:56 AM 75.9 °F 19.9 °F 12% 29.82 in 10.0 mi SSW 4.6 mph - N/A   Clear
9:56 AM 79.0 °F 19.9 °F 11% 29.82 in 10.0 mi South 3.5 mph - N/A   Clear
10:56 AM 82.0 °F 19.0 °F 10% 29.81 in 10.0 mi Calm Calm - N/A   Clear
11:56 AM 84.9 °F 19.9 °F 9% 29.78 in 10.0 mi Calm Calm - N/A   Clear
12:56 PM 84.9 °F 19.9 °F 9% 29.74 in 10.0 mi Variable 4.6 mph - N/A   Clear
1:56 PM 87.1 °F 19.9 °F 8% 29.71 in 10.0 mi South 6.9 mph - N/A   Clear
2:56 PM 90.0 °F 19.0 °F 7% 29.67 in 10.0 mi SE 4.6 mph - N/A   Clear
3:56 PM 91.9 °F 19.0 °F 7% 29.63 in 10.0 mi East 8.1 mph - N/A   Partly Cloudy
4:56 PM 90.0 °F 19.0 °F 7% 29.62 in 10.0 mi South 6.9 mph - N/A   Clear
5:56 PM 90.0 °F 19.0 °F 7% 29.61 in 10.0 mi SSW 4.6 mph - N/A   Clear
6:56 PM 89.1 °F 18.0 °F 7% 29.60 in 10.0 mi WSW 16.1 mph - N/A   Clear
7:56 PM 86.0 °F 19.9 °F 9% 29.60 in 10.0 mi SW 11.5 mph - N/A   Clear
8:56 PM 84.0 °F 21.0 °F 10% 29.61 in 10.0 mi SW 12.7 mph - N/A   Clear
9:56 PM 82.0 °F 21.0 °F 10% 29.62 in 10.0 mi SW 9.2 mph - N/A   Clear
10:56 PM 82.0 °F 14.0 °F 8% 29.64 in 10.0 mi NW 17.3 mph 25.3 mph N/A   Clear
11:56 PM 80.1 °F 9.0 °F 7% 29.67 in 10.0 mi NNW 12.7 mph 24.2 mph N/A   Partly Cloudy